Location: Bruderhein
(53.8035°N, 112.9265°W)
Time: 13:50:18
(UTC+00:00)

deb Delta 139 - Pass Details

Date: 08 December 2023
Orbit: 731 x 794 km, 98.6° (Epoch: 01 March)

Event Time Altitude Azimuth Distance (km) Brightness Sun altitude
Rises 13:48:01 0° 22° (NNE) 3,191 ? -14.7°
Reaches altitude 10° 13:50:36 10° 33° (NNE) 2,256 ? -14.3°
Maximum altitude 13:54:54 29° 94° (E) 1,327 ? -13.7°
Drops below altitude 10° 13:59:09 10° 154° (SSE) 2,229 ? -13.1°
Sets 14:01:41 0° 166° (SSE) 3,146 ? -12.8°
